Year,Month,Day,Hour,Minute,Value (Times are PST for temperature in C)
2018,10,21,00,00,5.70
2018,10,21,00,01,5.70
2018,10,21,00,02,5.70
2018,10,21,00,03,5.70
2018,10,21,00,04,5.70
2018,10,21,00,05,5.70
2018,10,21,00,06,5.70
2018,10,21,00,07,5.70
2018,10,21,00,08,5.70
2018,10,21,00,09,5.70
2018,10,21,00,10,5.70
2018,10,21,00,11,5.70
2018,10,21,00,12,5.70
2018,10,21,00,13,5.70
2018,10,21,00,14,5.70
2018,10,21,00,15,5.70
2018,10,21,00,16,5.70
2018,10,21,00,17,5.60
2018,10,21,00,18,5.60
2018,10,21,00,19,5.60
2018,10,21,00,20,5.60
2018,10,21,00,21,5.60
2018,10,21,00,22,5.60
2018,10,21,00,23,5.60
2018,10,21,00,24,5.60
2018,10,21,00,25,5.50
2018,10,21,00,26,5.50
2018,10,21,00,27,5.50
2018,10,21,00,28,5.50
2018,10,21,00,29,5.50
2018,10,21,00,30,5.50
2018,10,21,00,31,5.50
2018,10,21,00,32,5.50
2018,10,21,00,33,5.50
2018,10,21,00,34,5.40
2018,10,21,00,35,5.40
2018,10,21,00,36,5.40
2018,10,21,00,37,5.40
2018,10,21,00,38,5.40
2018,10,21,00,39,5.40
2018,10,21,00,40,5.40
2018,10,21,00,41,5.40
2018,10,21,00,42,5.40
2018,10,21,00,43,5.40
2018,10,21,00,44,5.40
2018,10,21,00,45,5.40
2018,10,21,00,46,5.30
2018,10,21,00,47,5.30
2018,10,21,00,48,5.30
2018,10,21,00,49,5.30
2018,10,21,00,50,5.30
2018,10,21,00,51,5.30
2018,10,21,00,52,5.30
2018,10,21,00,53,5.30
2018,10,21,00,54,5.30
2018,10,21,00,55,5.30
2018,10,21,00,56,5.30
2018,10,21,00,57,5.30
2018,10,21,00,58,5.30
2018,10,21,00,59,5.20
2018,10,21,01,00,5.20
2018,10,21,01,01,5.20
2018,10,21,01,02,5.20
2018,10,21,01,03,5.20
2018,10,21,01,04,5.20
2018,10,21,01,05,5.20
2018,10,21,01,06,5.20
2018,10,21,01,07,5.20
2018,10,21,01,08,5.20
2018,10,21,01,09,5.20
2018,10,21,01,10,5.20
2018,10,21,01,11,5.20
2018,10,21,01,12,5.20
2018,10,21,01,13,5.20
2018,10,21,01,14,5.20
2018,10,21,01,15,5.20
2018,10,21,01,16,5.10
2018,10,21,01,17,5.10
2018,10,21,01,18,5.10
2018,10,21,01,19,5.10
2018,10,21,01,20,5.10
2018,10,21,01,21,5.10
2018,10,21,01,22,5.10
2018,10,21,01,23,5.10
2018,10,21,01,24,5.10
2018,10,21,01,25,5.00
2018,10,21,01,26,5.00
2018,10,21,01,27,5.00
2018,10,21,01,28,5.00
2018,10,21,01,29,5.00
2018,10,21,01,30,5.00
2018,10,21,01,31,4.90
2018,10,21,01,32,4.90
2018,10,21,01,33,4.90
2018,10,21,01,34,4.90
2018,10,21,01,35,4.90
2018,10,21,01,36,4.90
2018,10,21,01,37,4.90
2018,10,21,01,38,4.90
2018,10,21,01,39,4.90
2018,10,21,01,40,4.90
2018,10,21,01,41,4.90
2018,10,21,01,42,4.90
2018,10,21,01,43,4.90
2018,10,21,01,44,4.90
2018,10,21,01,45,4.90
2018,10,21,01,46,4.80
2018,10,21,01,47,4.80
2018,10,21,01,48,4.80
2018,10,21,01,49,4.80
2018,10,21,01,50,4.80
2018,10,21,01,51,4.80
2018,10,21,01,52,4.80
2018,10,21,01,53,4.80
2018,10,21,01,54,4.80
2018,10,21,01,55,4.70
2018,10,21,01,56,4.70
2018,10,21,01,57,4.70
2018,10,21,01,58,4.70
2018,10,21,01,59,4.70
2018,10,21,02,00,4.70
2018,10,21,02,01,4.70
2018,10,21,02,02,4.70
2018,10,21,02,03,4.70
2018,10,21,02,04,4.70
2018,10,21,02,05,4.60
2018,10,21,02,06,4.60
2018,10,21,02,07,4.60
2018,10,21,02,08,4.60
2018,10,21,02,09,4.60
2018,10,21,02,10,4.60
2018,10,21,02,11,4.60
2018,10,21,02,12,4.60
2018,10,21,02,13,4.60
2018,10,21,02,14,4.60
2018,10,21,02,15,4.60
2018,10,21,02,16,4.60
2018,10,21,02,17,4.60
2018,10,21,02,18,4.60
2018,10,21,02,19,4.60
2018,10,21,02,20,4.60
2018,10,21,02,21,4.60
2018,10,21,02,22,4.60
2018,10,21,02,23,4.60
2018,10,21,02,24,4.60
2018,10,21,02,25,4.60
2018,10,21,02,26,4.60
2018,10,21,02,27,4.60
2018,10,21,02,28,4.60
2018,10,21,02,29,4.50
2018,10,21,02,30,4.60
2018,10,21,02,31,4.50
2018,10,21,02,32,4.50
2018,10,21,02,33,4.50
2018,10,21,02,34,4.50
2018,10,21,02,35,4.50
2018,10,21,02,36,4.50
2018,10,21,02,37,4.50
2018,10,21,02,38,4.50
2018,10,21,02,39,4.50
2018,10,21,02,40,4.50
2018,10,21,02,41,4.40
2018,10,21,02,42,4.40
2018,10,21,02,43,4.40
2018,10,21,02,44,4.40
2018,10,21,02,45,4.40
2018,10,21,02,46,4.40
2018,10,21,02,47,4.30
2018,10,21,02,48,4.30
2018,10,21,02,49,4.30
2018,10,21,02,50,4.30
2018,10,21,02,51,4.30
2018,10,21,02,52,4.30
2018,10,21,02,53,4.30
2018,10,21,02,54,4.30
2018,10,21,02,55,4.30
2018,10,21,02,56,4.30
2018,10,21,02,57,4.30
2018,10,21,02,58,4.30
2018,10,21,02,59,4.30
2018,10,21,03,00,4.30
2018,10,21,03,01,4.30
2018,10,21,03,02,4.30
2018,10,21,03,03,4.30
2018,10,21,03,04,4.30
2018,10,21,03,05,4.30
2018,10,21,03,06,4.30
2018,10,21,03,07,4.30
2018,10,21,03,08,4.30
2018,10,21,03,09,4.30
2018,10,21,03,10,4.30
2018,10,21,03,11,4.30
2018,10,21,03,12,4.20
2018,10,21,03,13,4.20
2018,10,21,03,14,4.20
2018,10,21,03,15,4.20
2018,10,21,03,16,4.20
2018,10,21,03,17,4.20
2018,10,21,03,18,4.20
2018,10,21,03,19,4.20
2018,10,21,03,20,4.20
2018,10,21,03,21,4.20
2018,10,21,03,22,4.20
2018,10,21,03,23,4.20
2018,10,21,03,24,4.20
2018,10,21,03,25,4.20
2018,10,21,03,26,4.20
2018,10,21,03,27,4.10
2018,10,21,03,28,4.10
2018,10,21,03,29,4.10
2018,10,21,03,30,4.10
2018,10,21,03,31,4.10
2018,10,21,03,32,4.10
2018,10,21,03,33,4.10
2018,10,21,03,34,4.10
2018,10,21,03,35,4.10
2018,10,21,03,36,4.10
2018,10,21,03,37,4.10
2018,10,21,03,38,4.00
2018,10,21,03,39,4.10
2018,10,21,03,40,4.00
2018,10,21,03,41,4.00
2018,10,21,03,42,4.00
2018,10,21,03,43,4.00
2018,10,21,03,44,4.00
2018,10,21,03,45,4.00
2018,10,21,03,46,4.00
2018,10,21,03,47,3.90
2018,10,21,03,48,3.90
2018,10,21,03,49,3.90
2018,10,21,03,50,3.90
2018,10,21,03,51,3.90
2018,10,21,03,52,3.90
2018,10,21,03,53,3.90
2018,10,21,03,54,3.90
2018,10,21,03,55,3.90
2018,10,21,03,56,3.90
2018,10,21,03,57,3.90
2018,10,21,03,58,3.90
2018,10,21,03,59,3.90
2018,10,21,04,00,3.90
2018,10,21,04,01,3.90
2018,10,21,04,02,3.90
2018,10,21,04,03,3.90
2018,10,21,04,04,3.90
2018,10,21,04,05,3.90
2018,10,21,04,06,3.90
2018,10,21,04,07,3.90
2018,10,21,04,08,3.90
2018,10,21,04,09,3.90
2018,10,21,04,10,3.90
2018,10,21,04,11,3.90
2018,10,21,04,12,3.90
2018,10,21,04,13,3.80
2018,10,21,04,14,3.80
2018,10,21,04,15,3.80
2018,10,21,04,16,3.80
2018,10,21,04,17,3.80
2018,10,21,04,18,3.80
2018,10,21,04,19,3.80
2018,10,21,04,20,3.90
2018,10,21,04,21,3.90
2018,10,21,04,22,3.80
2018,10,21,04,23,3.80
2018,10,21,04,24,3.80
2018,10,21,04,25,3.80
2018,10,21,04,26,3.80
2018,10,21,04,27,3.80
2018,10,21,04,28,3.80
2018,10,21,04,29,3.80
2018,10,21,04,30,3.80
2018,10,21,04,31,3.80
2018,10,21,04,32,3.80
2018,10,21,04,33,3.80
2018,10,21,04,34,3.80
2018,10,21,04,35,3.80
2018,10,21,04,36,3.80
2018,10,21,04,37,3.80
2018,10,21,04,38,3.80
2018,10,21,04,39,3.80
2018,10,21,04,40,3.80
2018,10,21,04,41,3.80
2018,10,21,04,42,3.80
2018,10,21,04,43,3.80
2018,10,21,04,44,3.80
2018,10,21,04,45,3.80
2018,10,21,04,46,3.70
2018,10,21,04,47,3.70
2018,10,21,04,48,3.70
2018,10,21,04,49,3.80
2018,10,21,04,50,3.70
2018,10,21,04,51,3.70
2018,10,21,04,52,3.70
2018,10,21,04,53,3.70
2018,10,21,04,54,3.70
2018,10,21,04,55,3.70
2018,10,21,04,56,3.70
2018,10,21,04,57,3.70
2018,10,21,04,58,3.70
2018,10,21,04,59,3.70
2018,10,21,05,00,3.70
2018,10,21,05,01,3.70
2018,10,21,05,02,3.70
2018,10,21,05,03,3.70
2018,10,21,05,04,3.70
2018,10,21,05,05,3.70
2018,10,21,05,06,3.70
2018,10,21,05,07,3.70
2018,10,21,05,08,3.70
2018,10,21,05,09,3.70
2018,10,21,05,10,3.70
2018,10,21,05,11,3.70
2018,10,21,05,12,3.70
2018,10,21,05,13,3.70
2018,10,21,05,14,3.70
2018,10,21,05,15,3.70
2018,10,21,05,16,3.70
2018,10,21,05,17,3.60
2018,10,21,05,18,3.60
2018,10,21,05,19,3.60
2018,10,21,05,20,3.60
2018,10,21,05,21,3.60
2018,10,21,05,22,3.60
2018,10,21,05,23,3.60
2018,10,21,05,24,3.60
2018,10,21,05,25,3.60
2018,10,21,05,26,3.60
2018,10,21,05,27,3.60
2018,10,21,05,28,3.60
2018,10,21,05,29,3.60
2018,10,21,05,30,3.60
2018,10,21,05,31,3.60
2018,10,21,05,32,3.60
2018,10,21,05,33,3.50
2018,10,21,05,34,3.50
2018,10,21,05,35,3.50
2018,10,21,05,36,3.50
2018,10,21,05,37,3.50
2018,10,21,05,38,3.50
2018,10,21,05,39,3.50
2018,10,21,05,40,3.50
2018,10,21,05,41,3.50
2018,10,21,05,42,3.50
2018,10,21,05,43,3.50
2018,10,21,05,44,3.40
2018,10,21,05,45,3.40
2018,10,21,05,46,3.40
2018,10,21,05,47,3.40
2018,10,21,05,48,3.40
2018,10,21,05,49,3.40
2018,10,21,05,50,3.40
2018,10,21,05,51,3.40
2018,10,21,05,52,3.40
2018,10,21,05,53,3.40
2018,10,21,05,54,3.40
2018,10,21,05,55,3.40
2018,10,21,05,56,3.40
2018,10,21,05,57,3.40
2018,10,21,05,58,3.40
2018,10,21,05,59,3.30
2018,10,21,06,00,3.30
2018,10,21,06,01,3.30
2018,10,21,06,02,3.30
2018,10,21,06,03,3.30
2018,10,21,06,04,3.30
2018,10,21,06,05,3.30
2018,10,21,06,06,3.30
2018,10,21,06,07,3.30
2018,10,21,06,08,3.30
2018,10,21,06,09,3.30
2018,10,21,06,10,3.30
2018,10,21,06,11,3.30
2018,10,21,06,12,3.20
2018,10,21,06,13,3.20
2018,10,21,06,14,3.20
2018,10,21,06,15,3.20
2018,10,21,06,16,3.20
2018,10,21,06,17,3.20
2018,10,21,06,18,3.30
2018,10,21,06,19,3.30
2018,10,21,06,20,3.30
2018,10,21,06,21,3.30
2018,10,21,06,22,3.30
2018,10,21,06,23,3.30
2018,10,21,06,24,3.30
2018,10,21,06,25,3.20
2018,10,21,06,26,3.20
2018,10,21,06,27,3.20
2018,10,21,06,28,3.20
2018,10,21,06,29,3.20
2018,10,21,06,30,3.20
2018,10,21,06,31,3.10
2018,10,21,06,32,3.10
2018,10,21,06,33,3.10
2018,10,21,06,34,3.20
2018,10,21,06,35,3.20
2018,10,21,06,36,3.20
2018,10,21,06,37,3.20
2018,10,21,06,38,3.20
2018,10,21,06,39,3.20
2018,10,21,06,40,3.20
2018,10,21,06,41,3.20
2018,10,21,06,42,3.20
2018,10,21,06,43,3.10
2018,10,21,06,44,3.10
2018,10,21,06,45,3.10
2018,10,21,06,46,3.10
2018,10,21,06,47,3.10
2018,10,21,06,48,3.10
2018,10,21,06,49,3.10
2018,10,21,06,50,3.10
2018,10,21,06,51,3.20
2018,10,21,06,52,3.20
2018,10,21,06,53,3.20
2018,10,21,06,54,3.20
2018,10,21,06,55,3.20
2018,10,21,06,56,3.20
2018,10,21,06,57,3.20
2018,10,21,06,58,3.20
2018,10,21,06,59,3.20
2018,10,21,07,00,3.20
2018,10,21,07,01,3.20
2018,10,21,07,02,3.10
2018,10,21,07,03,3.10
2018,10,21,07,04,3.10
2018,10,21,07,05,3.10
2018,10,21,07,06,3.10
2018,10,21,07,07,3.10
2018,10,21,07,08,3.10
2018,10,21,07,09,3.10
2018,10,21,07,10,3.10
2018,10,21,07,11,3.10
2018,10,21,07,12,3.10
2018,10,21,07,13,3.10
2018,10,21,07,14,3.00
2018,10,21,07,15,3.00
2018,10,21,07,16,3.00
2018,10,21,07,17,3.10
2018,10,21,07,18,3.10
2018,10,21,07,19,3.10
2018,10,21,07,20,3.10
2018,10,21,07,21,3.10
2018,10,21,07,22,3.10
2018,10,21,07,23,3.10
2018,10,21,07,24,3.10
2018,10,21,07,25,3.10
2018,10,21,07,26,3.10
2018,10,21,07,27,3.10
2018,10,21,07,28,3.10
2018,10,21,07,29,3.10
2018,10,21,07,30,3.10
2018,10,21,07,31,3.10
2018,10,21,07,32,3.10
2018,10,21,07,33,3.10
2018,10,21,07,34,3.10
2018,10,21,07,35,3.10
2018,10,21,07,36,3.10
2018,10,21,07,37,3.10
2018,10,21,07,38,3.10
2018,10,21,07,39,3.00
2018,10,21,07,40,3.00
2018,10,21,07,41,3.00
2018,10,21,07,42,3.00
2018,10,21,07,43,3.00
2018,10,21,07,44,3.00
2018,10,21,07,45,3.00
2018,10,21,07,46,3.00
2018,10,21,07,47,3.00
2018,10,21,07,48,3.00
2018,10,21,07,49,3.00
2018,10,21,07,50,3.00
2018,10,21,07,51,3.00
2018,10,21,07,52,2.90
2018,10,21,07,53,2.90
2018,10,21,07,54,2.90
2018,10,21,07,55,2.90
2018,10,21,07,56,2.90
2018,10,21,07,57,2.90
2018,10,21,07,58,2.90
2018,10,21,07,59,2.90
2018,10,21,08,00,2.90
2018,10,21,08,01,2.90
2018,10,21,08,02,2.90
2018,10,21,08,03,2.90
2018,10,21,08,04,3.00
2018,10,21,08,05,3.00
2018,10,21,08,06,3.00
2018,10,21,08,07,3.00
2018,10,21,08,08,3.00
2018,10,21,08,09,3.00
2018,10,21,08,10,3.10
2018,10,21,08,11,3.10
2018,10,21,08,12,3.20
2018,10,21,08,13,3.20
2018,10,21,08,14,3.20
2018,10,21,08,15,3.20
2018,10,21,08,16,3.20
2018,10,21,08,17,3.20
2018,10,21,08,18,3.20
2018,10,21,08,19,3.20
2018,10,21,08,20,3.20
2018,10,21,08,21,3.20
2018,10,21,08,22,3.30
2018,10,21,08,23,3.30
2018,10,21,08,24,3.40
2018,10,21,08,25,3.40
2018,10,21,08,26,3.50
2018,10,21,08,27,3.60
2018,10,21,08,28,3.70
2018,10,21,08,29,3.90
2018,10,21,08,30,4.00
2018,10,21,08,31,4.10
2018,10,21,08,32,4.20
2018,10,21,08,33,4.30
2018,10,21,08,34,4.40
2018,10,21,08,35,4.50
2018,10,21,08,36,4.50
2018,10,21,08,37,4.60
2018,10,21,08,38,4.70
2018,10,21,08,39,4.60
2018,10,21,08,40,4.60
2018,10,21,08,41,4.60
2018,10,21,08,42,4.60
2018,10,21,08,43,4.60
2018,10,21,08,44,4.70
2018,10,21,08,45,4.70
2018,10,21,08,46,4.60
2018,10,21,08,47,4.60
2018,10,21,08,48,4.60
2018,10,21,08,49,4.70
2018,10,21,08,50,4.80
2018,10,21,08,51,4.90
2018,10,21,08,52,5.10
2018,10,21,08,53,5.20
2018,10,21,08,54,5.40
2018,10,21,08,55,5.60
2018,10,21,08,56,5.60
2018,10,21,08,57,5.70
2018,10,21,08,58,5.70
2018,10,21,08,59,5.60
2018,10,21,09,00,5.60
2018,10,21,09,01,5.50
2018,10,21,09,02,5.50
2018,10,21,09,03,5.40
2018,10,21,09,04,5.40
2018,10,21,09,05,5.30
2018,10,21,09,06,5.30
2018,10,21,09,07,5.40
2018,10,21,09,08,5.40
2018,10,21,09,09,5.50
2018,10,21,09,10,5.60
2018,10,21,09,11,5.80
2018,10,21,09,12,5.90
2018,10,21,09,13,6.00
2018,10,21,09,14,6.10
2018,10,21,09,15,6.10
2018,10,21,09,16,6.20
2018,10,21,09,17,6.30
2018,10,21,09,18,6.40
2018,10,21,09,19,6.50
2018,10,21,09,20,6.60
2018,10,21,09,21,6.70
2018,10,21,09,22,6.90
2018,10,21,09,23,7.00
2018,10,21,09,24,7.20
2018,10,21,09,25,7.30
2018,10,21,09,26,7.40
2018,10,21,09,27,7.50
2018,10,21,09,28,7.70
2018,10,21,09,29,7.80
2018,10,21,09,30,8.00
2018,10,21,09,31,8.10
2018,10,21,09,32,8.30
2018,10,21,09,33,8.40
2018,10,21,09,34,8.50
2018,10,21,09,35,8.60
2018,10,21,09,36,8.70
2018,10,21,09,37,8.60
2018,10,21,09,38,8.70
2018,10,21,09,39,8.70
2018,10,21,09,40,8.70
2018,10,21,09,41,8.80
2018,10,21,09,42,8.80
2018,10,21,09,43,8.90
2018,10,21,09,44,9.00
2018,10,21,09,45,9.00
2018,10,21,09,46,9.10
2018,10,21,09,47,9.20
2018,10,21,09,48,9.30
2018,10,21,09,49,9.40
2018,10,21,09,50,9.50
2018,10,21,09,51,9.70
2018,10,21,09,52,9.80
2018,10,21,09,53,9.90
2018,10,21,09,54,9.90
2018,10,21,09,55,10.00
2018,10,21,09,56,10.10
2018,10,21,09,57,10.10
2018,10,21,09,58,10.20
2018,10,21,09,59,10.20
2018,10,21,10,00,10.30
2018,10,21,10,01,10.40
2018,10,21,10,02,10.50
2018,10,21,10,03,10.50
2018,10,21,10,04,10.60
2018,10,21,10,05,10.60
2018,10,21,10,06,10.70
2018,10,21,10,07,10.70
2018,10,21,10,08,10.80
2018,10,21,10,09,10.90
2018,10,21,10,10,11.00
2018,10,21,10,11,11.10
2018,10,21,10,12,11.10
2018,10,21,10,13,11.10
2018,10,21,10,14,11.10
2018,10,21,10,15,11.10
2018,10,21,10,16,11.00
2018,10,21,10,17,11.10
2018,10,21,10,18,11.10
2018,10,21,10,19,11.10
2018,10,21,10,20,11.10
2018,10,21,10,21,11.10
2018,10,21,10,22,11.10
2018,10,21,10,23,11.10
2018,10,21,10,24,11.20
2018,10,21,10,25,11.20
2018,10,21,10,26,11.20
2018,10,21,10,27,11.30
2018,10,21,10,28,11.30
2018,10,21,10,29,11.30
2018,10,21,10,30,11.40
2018,10,21,10,31,11.40
2018,10,21,10,32,11.50
2018,10,21,10,33,11.60
2018,10,21,10,34,11.60
2018,10,21,10,35,11.60
2018,10,21,10,36,11.70
2018,10,21,10,37,11.70
2018,10,21,10,38,11.80
2018,10,21,10,39,11.80
2018,10,21,10,40,11.90
2018,10,21,10,41,12.00
2018,10,21,10,42,12.10
2018,10,21,10,43,12.20
2018,10,21,10,44,12.20
2018,10,21,10,45,12.30
2018,10,21,10,46,12.40
2018,10,21,10,47,12.40
2018,10,21,10,48,12.50
2018,10,21,10,49,12.60
2018,10,21,10,50,12.70
2018,10,21,10,51,12.70
2018,10,21,10,52,12.80
2018,10,21,10,53,12.80
2018,10,21,10,54,12.80
2018,10,21,10,55,12.90
2018,10,21,10,56,12.90
2018,10,21,10,57,12.90
2018,10,21,10,58,13.00
2018,10,21,10,59,13.00
2018,10,21,11,00,13.00
2018,10,21,11,01,13.10
2018,10,21,11,02,13.10
2018,10,21,11,03,13.20
2018,10,21,11,04,13.20
2018,10,21,11,05,13.20
2018,10,21,11,06,13.20
2018,10,21,11,07,13.20
2018,10,21,11,08,13.20
2018,10,21,11,09,13.30
2018,10,21,11,10,13.30
2018,10,21,11,11,13.40
2018,10,21,11,12,13.40
2018,10,21,11,13,13.40
2018,10,21,11,14,13.40
2018,10,21,11,15,13.40
2018,10,21,11,16,13.40
2018,10,21,11,17,13.50
2018,10,21,11,18,13.50
2018,10,21,11,19,13.60
2018,10,21,11,20,13.70
2018,10,21,11,21,13.70
2018,10,21,11,22,13.80
2018,10,21,11,23,13.80
2018,10,21,11,24,13.80
2018,10,21,11,25,13.90
2018,10,21,11,26,13.90
2018,10,21,11,27,13.90
2018,10,21,11,28,13.90
2018,10,21,11,29,14.00
2018,10,21,11,30,14.00
2018,10,21,11,31,14.10
2018,10,21,11,32,14.10
2018,10,21,11,33,14.10
2018,10,21,11,34,14.20
2018,10,21,11,35,14.30
2018,10,21,11,36,14.40
2018,10,21,11,37,14.50
2018,10,21,11,38,14.60
2018,10,21,11,39,14.60
2018,10,21,11,40,14.70
2018,10,21,11,41,14.70
2018,10,21,11,42,14.70
2018,10,21,11,43,14.70
2018,10,21,11,44,14.70
2018,10,21,11,45,14.70
2018,10,21,11,46,14.80
2018,10,21,11,47,14.80
2018,10,21,11,48,14.80
2018,10,21,11,49,14.80
2018,10,21,11,50,14.80
2018,10,21,11,51,14.80
2018,10,21,11,52,14.80
2018,10,21,11,53,14.80
2018,10,21,11,54,14.80
2018,10,21,11,55,14.80
2018,10,21,11,56,14.80
2018,10,21,11,57,14.90
2018,10,21,11,58,14.90
2018,10,21,11,59,14.90
2018,10,21,12,00,15.00
2018,10,21,12,01,14.90
2018,10,21,12,02,14.90
2018,10,21,12,03,14.90
2018,10,21,12,04,14.90
2018,10,21,12,05,14.90
2018,10,21,12,06,14.90
2018,10,21,12,07,15.00
2018,10,21,12,08,15.00
2018,10,21,12,09,14.90
2018,10,21,12,10,14.90
2018,10,21,12,11,14.90
2018,10,21,12,12,14.90
2018,10,21,12,13,14.90
2018,10,21,12,14,14.90
2018,10,21,12,15,14.90
2018,10,21,12,16,14.90
2018,10,21,12,17,14.90
2018,10,21,12,18,14.90
2018,10,21,12,19,14.90
2018,10,21,12,20,14.90
2018,10,21,12,21,14.90
2018,10,21,12,22,14.90
2018,10,21,12,23,14.90
2018,10,21,12,24,14.90
2018,10,21,12,25,14.90
2018,10,21,12,26,14.90
2018,10,21,12,27,14.90
2018,10,21,12,28,15.00
2018,10,21,12,29,15.00
2018,10,21,12,30,15.00
2018,10,21,12,31,15.10
2018,10,21,12,32,15.10
2018,10,21,12,33,15.10
2018,10,21,12,34,15.20
2018,10,21,12,35,15.20
2018,10,21,12,36,15.30
2018,10,21,12,37,15.40
2018,10,21,12,38,15.50
2018,10,21,12,39,15.50
2018,10,21,12,40,15.60
2018,10,21,12,41,15.60
2018,10,21,12,42,15.60
2018,10,21,12,43,15.60
2018,10,21,12,44,15.70
2018,10,21,12,45,15.70
2018,10,21,12,46,15.70
2018,10,21,12,47,15.70
2018,10,21,12,48,15.70
2018,10,21,12,49,15.80
2018,10,21,12,50,15.80
2018,10,21,12,51,15.80
2018,10,21,12,52,15.80
2018,10,21,12,53,15.80
2018,10,21,12,54,15.80
2018,10,21,12,55,15.80
2018,10,21,12,56,15.90
2018,10,21,12,57,15.90
2018,10,21,12,58,15.90
2018,10,21,12,59,15.90
2018,10,21,13,00,15.90
2018,10,21,13,01,15.80
2018,10,21,13,02,15.80
2018,10,21,13,03,15.80
2018,10,21,13,04,15.80
2018,10,21,13,05,15.80
2018,10,21,13,06,15.80
2018,10,21,13,07,15.80
2018,10,21,13,08,15.70
2018,10,21,13,09,15.70
2018,10,21,13,10,15.70
2018,10,21,13,11,15.70
2018,10,21,13,12,15.70
2018,10,21,13,13,15.70
2018,10,21,13,14,15.70
2018,10,21,13,15,15.70
2018,10,21,13,16,15.70
2018,10,21,13,17,15.80
2018,10,21,13,18,15.80
2018,10,21,13,19,15.80
2018,10,21,13,20,15.70
2018,10,21,13,21,15.80
2018,10,21,13,22,15.80
2018,10,21,13,23,15.80
2018,10,21,13,24,15.80
2018,10,21,13,25,15.80
2018,10,21,13,26,15.80
2018,10,21,13,27,15.80
2018,10,21,13,28,15.80
2018,10,21,13,29,15.80
2018,10,21,13,30,15.80
2018,10,21,13,31,15.80
2018,10,21,13,32,15.80
2018,10,21,13,33,15.80
2018,10,21,13,34,15.80
2018,10,21,13,35,15.80
2018,10,21,13,36,15.90
2018,10,21,13,37,15.90
2018,10,21,13,38,15.90
2018,10,21,13,39,15.90
2018,10,21,13,40,15.90
2018,10,21,13,41,15.90
2018,10,21,13,42,15.90
2018,10,21,13,43,15.90
2018,10,21,13,44,15.80
2018,10,21,13,45,15.80
2018,10,21,13,46,15.80
2018,10,21,13,47,15.90
2018,10,21,13,48,15.90
2018,10,21,13,49,15.90
2018,10,21,13,50,15.90
2018,10,21,13,51,16.00
2018,10,21,13,52,16.00
2018,10,21,13,53,16.00
2018,10,21,13,54,16.00
2018,10,21,13,55,16.00
2018,10,21,13,56,16.00
2018,10,21,13,57,16.00
2018,10,21,13,58,16.00
2018,10,21,13,59,16.00
2018,10,21,14,00,16.00
2018,10,21,14,01,16.00
2018,10,21,14,02,16.00
2018,10,21,14,03,16.00
2018,10,21,14,04,15.90
2018,10,21,14,05,15.90
2018,10,21,14,06,15.90
2018,10,21,14,07,15.80
2018,10,21,14,08,15.80
2018,10,21,14,09,15.80
2018,10,21,14,10,15.80
2018,10,21,14,11,15.70
2018,10,21,14,12,15.70
2018,10,21,14,13,15.80
2018,10,21,14,14,15.70
2018,10,21,14,15,15.70
2018,10,21,14,16,15.70
2018,10,21,14,17,15.80
2018,10,21,14,18,15.80
2018,10,21,14,19,15.80
2018,10,21,14,20,15.80
2018,10,21,14,21,15.80
2018,10,21,14,22,15.80
2018,10,21,14,23,15.90
2018,10,21,14,24,15.90
2018,10,21,14,25,15.90
2018,10,21,14,26,15.90
2018,10,21,14,27,15.90
2018,10,21,14,28,16.00
2018,10,21,14,29,16.00
2018,10,21,14,30,16.00
2018,10,21,14,31,16.10
2018,10,21,14,32,16.10
2018,10,21,14,33,16.20
2018,10,21,14,34,16.20
2018,10,21,14,35,16.30
2018,10,21,14,36,16.30
2018,10,21,14,37,16.40
2018,10,21,14,38,16.40
2018,10,21,14,39,16.50
2018,10,21,14,40,16.50
2018,10,21,14,41,16.60
2018,10,21,14,42,16.60
2018,10,21,14,43,16.60
2018,10,21,14,44,16.60
2018,10,21,14,45,16.60
2018,10,21,14,46,16.60
2018,10,21,14,47,16.60
2018,10,21,14,48,16.70
2018,10,21,14,49,16.70
2018,10,21,14,50,16.70
2018,10,21,14,51,16.70
2018,10,21,14,52,16.70
2018,10,21,14,53,16.70
2018,10,21,14,54,16.70
2018,10,21,14,55,16.70
2018,10,21,14,56,16.70
2018,10,21,14,57,16.70
2018,10,21,14,58,16.70
2018,10,21,14,59,16.80
2018,10,21,15,00,16.80
2018,10,21,15,01,16.90
2018,10,21,15,02,16.90
2018,10,21,15,03,17.00
2018,10,21,15,04,17.10
2018,10,21,15,05,17.10
2018,10,21,15,06,17.10
2018,10,21,15,07,17.10
2018,10,21,15,08,17.20
2018,10,21,15,09,17.20
2018,10,21,15,10,17.20
2018,10,21,15,11,17.20
2018,10,21,15,12,17.20
2018,10,21,15,13,17.30
2018,10,21,15,14,17.30
2018,10,21,15,15,17.30
2018,10,21,15,16,17.30
2018,10,21,15,17,17.30
2018,10,21,15,18,17.30
2018,10,21,15,19,17.30
2018,10,21,15,20,17.30
2018,10,21,15,21,17.30
2018,10,21,15,22,17.30
2018,10,21,15,23,17.30
2018,10,21,15,24,17.40
2018,10,21,15,25,17.40
2018,10,21,15,26,17.40
2018,10,21,15,27,17.40
2018,10,21,15,28,17.40
2018,10,21,15,29,17.40
2018,10,21,15,30,17.40
2018,10,21,15,31,17.40
2018,10,21,15,32,17.30
2018,10,21,15,33,17.30
2018,10,21,15,34,17.30
2018,10,21,15,35,17.30
2018,10,21,15,36,17.30
2018,10,21,15,37,17.30
2018,10,21,15,38,17.40
2018,10,21,15,39,17.40
2018,10,21,15,40,17.40
2018,10,21,15,41,17.40
2018,10,21,15,42,17.30
2018,10,21,15,43,17.30
2018,10,21,15,44,17.30
2018,10,21,15,45,17.30
2018,10,21,15,46,17.30
2018,10,21,15,47,17.30
2018,10,21,15,48,17.30
2018,10,21,15,49,17.20
2018,10,21,15,50,17.20
2018,10,21,15,51,17.10
2018,10,21,15,52,17.10
2018,10,21,15,53,17.10
2018,10,21,15,54,17.00
2018,10,21,15,55,17.00
2018,10,21,15,56,16.90
2018,10,21,15,57,16.90
2018,10,21,15,58,16.90
2018,10,21,15,59,16.80
2018,10,21,16,00,16.80
2018,10,21,16,01,16.80
2018,10,21,16,02,16.80
2018,10,21,16,03,16.80
2018,10,21,16,04,16.80
2018,10,21,16,05,16.80
2018,10,21,16,06,16.70
2018,10,21,16,07,16.70
2018,10,21,16,08,16.70
2018,10,21,16,09,16.70
2018,10,21,16,10,16.70
2018,10,21,16,11,16.80
2018,10,21,16,12,16.80
2018,10,21,16,13,16.80
2018,10,21,16,14,16.90
2018,10,21,16,15,16.90
2018,10,21,16,16,16.90
2018,10,21,16,17,16.90
2018,10,21,16,18,16.90
2018,10,21,16,19,16.90
2018,10,21,16,20,16.90
2018,10,21,16,21,16.90
2018,10,21,16,22,16.90
2018,10,21,16,23,16.90
2018,10,21,16,24,16.90
2018,10,21,16,25,16.90
2018,10,21,16,26,16.90
2018,10,21,16,27,16.80
2018,10,21,16,28,16.80
2018,10,21,16,29,16.80
2018,10,21,16,30,16.70
2018,10,21,16,31,16.70
2018,10,21,16,32,16.70
2018,10,21,16,33,16.70
2018,10,21,16,34,16.60
2018,10,21,16,35,16.60
2018,10,21,16,36,16.60
2018,10,21,16,37,16.60
2018,10,21,16,38,16.60
2018,10,21,16,39,16.50
2018,10,21,16,40,16.50
2018,10,21,16,41,16.50
2018,10,21,16,42,16.40
2018,10,21,16,43,16.40
2018,10,21,16,44,16.40
2018,10,21,16,45,16.40
2018,10,21,16,46,16.50
2018,10,21,16,47,16.50
2018,10,21,16,48,16.60
2018,10,21,16,49,16.60
2018,10,21,16,50,16.70
2018,10,21,16,51,16.70
2018,10,21,16,52,16.60
2018,10,21,16,53,16.50
2018,10,21,16,54,16.40
2018,10,21,16,55,16.30
2018,10,21,16,56,16.00
2018,10,21,16,57,15.90
2018,10,21,16,58,15.70
2018,10,21,16,59,15.50
2018,10,21,17,00,15.40
2018,10,21,17,01,15.20
2018,10,21,17,02,15.20
2018,10,21,17,03,15.00
2018,10,21,17,04,14.90
2018,10,21,17,05,14.80
2018,10,21,17,06,14.70
2018,10,21,17,07,14.60
2018,10,21,17,08,14.60
2018,10,21,17,09,14.50
2018,10,21,17,10,14.50
2018,10,21,17,11,14.50
2018,10,21,17,12,14.40
2018,10,21,17,13,14.40
2018,10,21,17,14,14.40
2018,10,21,17,15,14.40
2018,10,21,17,16,14.40
2018,10,21,17,17,14.40
2018,10,21,17,18,14.40
2018,10,21,17,19,14.30
2018,10,21,17,20,14.30
2018,10,21,17,21,14.30
2018,10,21,17,22,14.20
2018,10,21,17,23,14.20
2018,10,21,17,24,14.10
2018,10,21,17,25,14.10
2018,10,21,17,26,14.10
2018,10,21,17,27,14.00
2018,10,21,17,28,13.90
2018,10,21,17,29,13.90
2018,10,21,17,30,13.90
2018,10,21,17,31,13.80
2018,10,21,17,32,13.80
2018,10,21,17,33,13.80
2018,10,21,17,34,13.70
2018,10,21,17,35,13.70
2018,10,21,17,36,13.70
2018,10,21,17,37,13.70
2018,10,21,17,38,13.70
2018,10,21,17,39,13.60
2018,10,21,17,40,13.60
2018,10,21,17,41,13.60
2018,10,21,17,42,13.60
2018,10,21,17,43,13.60
2018,10,21,17,44,13.60
2018,10,21,17,45,13.60